Athens Eleftherios, Greece

5:10 PM EEST on April 27, 2017 (GMT +0300)
Eleftherios Venizelos International

Weather History for LGAV - March, 2013

Change the Weather History Date:

Monday, March 18, 2013

  Actual Average (LGAT) Record (LGAT)
Temperature  
Mean Temperature 45 °F -  
Max Temperature 57 °F 58 °F 64 °F (2001)
Min Temperature 33 °F 45 °F 37 °F (1998)
Degree Days  
Heating Degree Days 20    
Moisture  
Dew Point 39 °F    
Average Humidity 76    
Maximum Humidity 93    
Minimum Humidity 51    
Precipitation  
Precipitation 0.00 in - - ()
Sea Level Pressure  
Sea Level Pressure 30.09 in    
Wind  
Wind Speed 4 mph ()    
Max Wind Speed 13 mph    
Max Gust Speed -    
Visibility 6.2 miles    
Events Rain    
Averages and records for this station are not official NWS values.
T = Trace of Precipitation, MM = Missing Value Source: Averaged Metar Reports

Daily Weather History Graph

Daily Weather History Graph

Search for Another Location

Airport or City:

Trip Planner

Search our weather history database for the weather conditions in past years. The results will help you decide how hot, cold, wet, or windy it might be!

Date:

Astronomy

Mar. 18, 2013 Rise Set
Actual Time 6:30 AM EET 6:34 PM EET
Civil Twilight 6:04 AM EET 7:00 PM EET
Nautical Twilight 5:34 AM EET 7:31 PM EET
Astronomical Twilight 5:03 AM EET 8:02 PM EET
Moon 10:20 AM EET (3/18) 12:12 AM EET (3/18)
Length of Visible Light 12h 55m
Length of Day
12h 03m
Waxing Crescent, 38% of the Moon is Illuminated
Mar 18
Waxing Crescent
Mar 19
First Quarter
Mar 27
Full
Apr 3
Last Quarter
Apr 10
New

Hourly Weather History & Observations

Time (EET) Temp. Windchill Dew Point Humidity Pressure Visibility Wind Dir Wind Speed Gust Speed Precip Events Conditions
12:20 AM 37.4 °F - 33.8 °F 87% 30.18 in 6.2 mi Variable 1.2 mph - N/A   Mostly Cloudy
12:50 AM 37.4 °F 33.8 °F 33.8 °F 87% 30.18 in 6.2 mi WNW 4.6 mph - N/A   Mostly Cloudy
1:20 AM 33.8 °F - 32.0 °F 93% 30.21 in 6.2 mi NW 2.3 mph - N/A   Mostly Cloudy
1:50 AM 35.6 °F - 33.8 °F 93% 30.18 in 6.2 mi Variable 1.2 mph - N/A   Mostly Cloudy
2:20 AM 33.8 °F - 32.0 °F 93% 30.18 in 6.2 mi Variable 1.2 mph - N/A   Mostly Cloudy
2:50 AM 35.6 °F - 33.8 °F 93% 30.18 in 6.2 mi NNW 1.2 mph - N/A   Mostly Cloudy
3:20 AM 35.6 °F - 33.8 °F 93% 30.15 in 6.2 mi NW 2.3 mph - N/A   Mostly Cloudy
3:50 AM 35.6 °F - 33.8 °F 93% 30.15 in 6.2 mi NW 2.3 mph - N/A   Mostly Cloudy
4:20 AM 35.6 °F - 33.8 °F 93% 30.15 in 6.2 mi WNW 1.2 mph - N/A   Mostly Cloudy
4:50 AM 37.4 °F - 33.8 °F 87% 30.15 in 6.2 mi Calm Calm - N/A   Mostly Cloudy
5:20 AM 37.4 °F - 35.6 °F 93% 30.15 in 6.2 mi WNW 2.3 mph - N/A   Mostly Cloudy
5:50 AM 37.4 °F - 35.6 °F 93% 30.15 in 6.2 mi WNW 1.2 mph - N/A   Mostly Cloudy
6:20 AM 37.4 °F - 35.6 °F 93% 30.15 in 6.2 mi WNW 1.2 mph - N/A   Scattered Clouds
6:50 AM 39.2 °F - 33.8 °F 81% 30.15 in 6.2 mi WNW 2.3 mph - N/A   Scattered Clouds
7:20 AM 41.0 °F - 35.6 °F 81% 30.15 in 6.2 mi West 2.3 mph - N/A   Scattered Clouds
7:50 AM 42.8 °F - 35.6 °F 76% 30.15 in 6.2 mi Calm Calm - N/A   Scattered Clouds
8:50 AM 50.0 °F - 42.8 °F 76% 30.15 in 6.2 mi Calm Calm - N/A   Mostly Cloudy
9:20 AM 51.8 °F - 41.0 °F 67% 30.15 in 6.2 mi Calm Calm - N/A   Mostly Cloudy
9:50 AM 51.8 °F - 41.0 °F 67% 30.15 in 6.2 mi Variable 3.5 mph - N/A   Mostly Cloudy
10:20 AM 53.6 °F - 41.0 °F 62% 30.15 in 6.2 mi Variable 3.5 mph - N/A   Mostly Cloudy
10:50 AM 55.4 °F - 41.0 °F 58% 30.15 in 6.2 mi South 8.1 mph - N/A   Mostly Cloudy
11:20 AM 57.2 °F - 39.2 °F 51% 30.12 in 6.2 mi SSW 6.9 mph - N/A   Mostly Cloudy
11:50 AM 55.4 °F - 37.4 °F 51% 30.12 in 6.2 mi SSW 10.4 mph - N/A   Mostly Cloudy
12:20 PM 55.4 °F - 41.0 °F 58% 30.12 in 6.2 mi SW 11.5 mph - N/A   Mostly Cloudy
12:50 PM 55.4 °F - 37.4 °F 51% 30.12 in 6.2 mi SSW 11.5 mph - N/A   Mostly Cloudy
1:20 PM 53.6 °F - 41.0 °F 62% 30.09 in 6.2 mi SSW 11.5 mph - N/A   Mostly Cloudy
1:50 PM 53.6 °F - 39.2 °F 58% 30.06 in 6.2 mi South 12.7 mph - N/A   Mostly Cloudy
2:20 PM 53.6 °F - 37.4 °F 54% 30.06 in 6.2 mi South 11.5 mph - N/A   Overcast
2:50 PM 53.6 °F - 37.4 °F 54% 30.06 in 6.2 mi SSW 10.4 mph - N/A   Overcast
3:20 PM 53.6 °F - 39.2 °F 58% 30.06 in 6.2 mi SSW 11.5 mph - N/A   Overcast
3:50 PM 53.6 °F - 41.0 °F 62% 30.04 in 6.2 mi South 10.4 mph - N/A   Drizzle
4:20 PM 51.8 °F - 42.8 °F 71% 30.04 in 6.2 mi SSW 9.2 mph - N/A   Drizzle
4:50 PM 51.8 °F - 42.8 °F 71% 30.04 in 6.2 mi SSW 6.9 mph - N/A   Drizzle
5:20 PM 51.8 °F - 42.8 °F 71% 30.04 in 6.2 mi SW 3.5 mph - N/A   Overcast
5:50 PM 51.8 °F - 42.8 °F 71% 30.04 in 6.2 mi SSW 3.5 mph - N/A   Overcast
6:20 PM 51.8 °F - 44.6 °F 76% 30.04 in 6.2 mi ESE 3.5 mph - N/A   Drizzle
6:50 PM 50.0 °F - 44.6 °F 82% 30.01 in 5.6 mi ESE 5.8 mph - N/A   Drizzle
7:20 PM 50.0 °F - 44.6 °F 82% 30.01 in 6.2 mi SSE 6.9 mph - N/A Rain Light Rain
7:50 PM 50.0 °F - 44.6 °F 82% 30.01 in 6.2 mi SSE 5.8 mph - N/A   Drizzle
8:20 PM 50.0 °F - 44.6 °F 82% 30.01 in 6.2 mi SE 5.8 mph - N/A   Overcast
8:50 PM 50.0 °F - 44.6 °F 82% 30.01 in 6.2 mi South 4.6 mph - N/A   Mostly Cloudy
9:20 PM 50.0 °F - 44.6 °F 82% 30.01 in 6.2 mi SE 2.3 mph - N/A   Mostly Cloudy
9:50 PM 51.8 °F - 44.6 °F 76% 30.01 in 6.2 mi SE 4.6 mph - N/A   Mostly Cloudy
10:20 PM 51.8 °F - 44.6 °F 76% 30.01 in 6.2 mi South 3.5 mph - N/A   Mostly Cloudy
10:50 PM 51.8 °F - 44.6 °F 76% 29.98 in 6.2 mi SE 8.1 mph - N/A   Mostly Cloudy
11:20 PM 50.0 °F - 44.6 °F 82% 29.98 in 6.2 mi South 3.5 mph - N/A   Mostly Cloudy
11:50 PM 51.8 °F - 44.6 °F 76% 29.98 in 6.2 mi Variable 1.2 mph - N/A   Mostly Cloudy